Zurück zum Katalog

STARLINK-30518

AktivKommunikationVLEO
NORAD 58029·PAYLOAD·🇺🇸 United States

Gestartet Oct 9, 2023 von Vandenberg Space Force Base

Loading…

Nächste Überflüge (nächste 24 Stunden)

TLE

AktuellSource: CelesTrak SupGP

Epoche: Sep 14, 2026, 21:05 UTC

1 58029C 23156B   26257.87895833  .00037897  00000+0  11200-2 0  2570
2 58029  53.1573 277.8477 0001152  91.9851  18.4507 15.34363795    16

Verfolge STARLINK-30518 in Echtzeit mit AllMySat

Download on the App Store